Kansas Department of Transportation
RWIS(Road and Runway Information System) Map and Weather Data





Station
Surface
Air
Wind
Site IDSensor TypeLocationTemperature (°F)Temperature (°F)Humidity (%)Speed (mi/h)Gusts (mi/h)DirectionTime
123002AtmosphericBonner Springs 579024WMay 19 2019 7:25AM
123002ApproachBonner Springs63     May 19 2019 7:25AM
123002DeckBonner Springs61     May 19 2019 7:25AM
123014AtmosphericBull Creek 579568WNWMay 19 2019 7:25AM
123014DeckBull Creek61     May 19 2019 7:25AM
123014DepartureBull Creek61     May 19 2019 7:25AM
123015AtmosphericLeavenworth 599559NNWMay 19 2019 7:25AM
123015DeckLeavenworthUnavailable     May 19 2019 7:25AM
123015DepartureLeavenworth61     May 19 2019 7:25AM
123020AtmosphericMayetta      May 18 2019 6:15PM
123020RoadwayMayettaUnavailable     May 19 2019 7:25AM
123020DeckMayettaUnavailable     May 19 2019 7:25AM
505000AtmosphericKTA 1 559224NWMay 19 2019 7:20AM
505000ApproachKTA 154     May 19 2019 7:20AM
505000DeckKTA 157     May 19 2019 7:20AM
505001AtmosphericKTA 2 579649NNWMay 19 2019 7:20AM
505001ApproachKTA 259     May 19 2019 7:20AM
505001DeckKTA 261     May 19 2019 7:20AM
505002AtmosphericKTA 3 579957NWMay 19 2019 7:20AM
505002ApproachKTA 361     May 19 2019 7:20AM
505002DeckKTA 357     May 19 2019 7:20AM
505003AtmosphericKTA 4 578449NMay 19 2019 7:20AM
505003ApproachKTA 457     May 19 2019 7:20AM
505003DeckKTA 457     May 19 2019 7:20AM
505004AtmosphericKTA 5 55991013NMay 19 2019 7:20AM
505004RoadwayKTA 555     May 19 2019 7:20AM
505004RoadwayKTA 555     May 19 2019 7:20AM
505005AtmosphericKTA 6 5586712WNWMay 19 2019 7:20AM
505005Approach KTA 657     May 19 2019 7:20AM
505005DeckKTA 654     May 19 2019 7:20AM
505006AtmosphericKTA 7 5594611NWMay 19 2019 7:20AM
505006ApproachKTA 7Unavailable     May 19 2019 7:20AM
505006DeckKTA 7Unavailable     May 19 2019 7:20AM
505007AtmosphericKTA 8 5799711NNWMay 19 2019 7:20AM
505007ApproachKTA 859     May 19 2019 7:20AM
505007DeckKTA 857     May 19 2019 7:20AM
505008AtmosphericKTA 9 591049WNWMay 19 2019 7:20AM
505008ApproachKTA 961     May 19 2019 7:20AM
505008DeckKTA 959     May 19 2019 7:20AM
505009AtmosphericKTA 10 669900NMay 19 2019 7:20AM
505009ApproachKTA 1061     May 19 2019 7:20AM
505009DeckKTA 1059     May 19 2019 7:20AM
505010AtmosphericWebb 5773914WSWMay 19 2019 7:25AM
505010DeckWebb57     May 19 2019 7:25AM
505010NullWebb61     May 19 2019 7:25AM
505014AtmosphericI-135 5780612NNWMay 19 2019 7:20AM
505014ApproachI-13561     May 19 2019 7:25AM
505014DeckI-13563     May 19 2019 7:25AM
540000AtmosphericBlue Rapids 5482412WMay 19 2019 7:25AM
540000DeckBlue Rapids52     May 19 2019 7:25AM
540000DepartureBlue Rapids55     May 19 2019 7:25AM
540001AtmosphericSabetha      May 19 2019 1:15AM
540001ApproachSabetha      May 19 2019 1:15AM
540001DeckSabetha      May 19 2019 1:15AM
540002AtmosphericWestgate 5589713WNWMay 19 2019 7:25AM
540002DeckWestgate57     May 19 2019 7:25AM
540002DepartureWestgate59     May 19 2019 7:25AM
540003AtmosphericEmporia 57799 NWMay 19 2019 7:25AM
540003ApproachEmporia59     May 19 2019 7:25AM
540003DeckEmporia57     May 19 2019 7:25AM
540005AtmosphericLawrence 5994412WSWMay 19 2019 7:25AM
540005ApproachLawrenceUnavailable     May 19 2019 7:25AM
540005DeckLawrenceUnavailable     May 19 2019 7:25AM
540006AtmosphericTroy 59993 WMay 19 2019 7:20AM
540006DeckTroy59     May 19 2019 7:25AM
540006DepartureTroy61     May 19 2019 7:25AM
540007AtmosphericManhattan 5575610WNWMay 19 2019 7:25AM
540007DepartureManhattan54     May 19 2019 7:25AM
540007DeckManhattan57     May 19 2019 7:25AM
541001AtmosphericSyracuse 398126WNWMay 19 2019 7:25AM
541001Out of Service for WinterSyracuse50     May 19 2019 7:25AM
541001DeckSyracuse46     May 19 2019 7:25AM
541002AtmosphericLiberal 468226NWMay 19 2019 7:25AM
541002ApproachLiberalUnavailable     May 19 2019 7:25AM
541002DeckLiberalUnavailable     May 19 2019 7:25AM
541003AtmosphericFord 4681712NWMay 19 2019 7:25AM
541003DeckFord46     May 19 2019 7:25AM
541003DepartureFord54     May 19 2019 7:25AM
541004AtmosphericScott 3985811NNEMay 19 2019 7:25AM
541004DepartureScott52     May 19 2019 7:25AM
541005AtmosphericNess 457936NWMay 19 2019 7:25AM
541005DeckNess46     May 19 2019 7:25AM
541005DepartureNess55     May 19 2019 7:25AM
543000AtmosphericJunction City 559817NNEMay 19 2019 7:25AM
543000ApproachJunction City59     May 19 2019 7:25AM
543000DeckJunction CityUnavailable     May 19 2019 7:25AM
543002AtmosphericMcPherson 528700NWMay 19 2019 7:25AM
543002ApproachMcPherson54     May 19 2019 7:25AM
543002DeckMcPherson52     May 19 2019 7:25AM
543003AtmosphericSalina 5258713SSWMay 19 2019 7:25AM
543003DepartureSalina54     May 19 2019 7:25AM
543003RoadwaySalinaUnavailable     May 19 2019 7:25AM
543004AtmosphericConcordia 50781116WNWMay 19 2019 7:25AM
543004ApproachConcordiaUnavailable     May 19 2019 7:25AM
543004DeckConcordia50     May 19 2019 7:25AM
543005AtmosphericPeabody 578700ESEMay 19 2019 7:25AM
543005ApproachPeabody57     May 19 2019 7:25AM
543005DeckPeabodyUnavailable     May 19 2019 7:25AM
560000AtmosphericEdson 3974912NWMay 19 2019 7:25AM
560000RoadwayEdson48     May 19 2019 7:25AM
560000RoadwayEdson48     May 19 2019 7:25AM
560002AtmosphericAtwood 417349WNWMay 19 2019 7:25AM
560002ApproachAtwood48     May 19 2019 7:25AM
560002DeckAtwoodUnavailable     May 19 2019 7:25AM
560003AtmosphericJennings 438248NMay 19 2019 7:25AM
560003ApproachJennings52     May 19 2019 7:25AM
560003DeckJennings50     May 19 2019 7:25AM
560003DeckJennings50     May 19 2019 7:25AM
560004AtmosphericWakeeney 4577914NWMay 19 2019 7:25AM
560004ApproachWakeeney50     May 19 2019 7:25AM
560004DeckWakeeney48     May 19 2019 7:25AM
560005AtmosphericWalker 4578712NWMay 19 2019 7:25AM
560005ApproachWalker54     May 19 2019 7:25AM
560005DeckWalker50     May 19 2019 7:25AM
560006AtmosphericBow Creek(Stockton) 457469NNWMay 19 2019 7:25AM
560006ApproachBow Creek(Stockton)54     May 19 2019 7:25AM
560006DeckBow Creek(Stockton)54     May 19 2019 7:25AM
560007AtmosphericLebanon 4883914NWMay 19 2019 7:25AM
560007ApproachLebanon54     May 19 2019 7:25AM
560007DeckLebanon52     May 19 2019 7:25AM
572000AtmosphericGreat Bend 4886813NWMay 19 2019 7:25AM
572000ApproachGreat Bend52     May 19 2019 7:25AM
572000DeckGreat Bend48     May 19 2019 7:25AM
572001AtmosphericPratt 505449NWMay 19 2019 7:25AM
572001ApproachPratt55     May 19 2019 7:25AM
572001DeckPratt55     May 19 2019 7:25AM
572002AtmosphericAnthony 578026NWMay 19 2019 7:25AM
572002ApproachAnthony61     May 19 2019 7:25AM
572002DeckAnthony61     May 19 2019 7:25AM
573000AtmosphericEureka 5783713NWMay 19 2019 7:25AM
573000DeckEureka59     May 19 2019 7:25AM
573000DepartureEureka59     May 19 2019 7:25AM
573002AtmosphericCaney 575903SEMay 19 2019 7:25AM
573002RoadwayCaney61     May 19 2019 7:25AM
573003AtmosphericChetopa 559327SWMay 19 2019 7:25AM
573003DeckChetopa59     May 19 2019 7:25AM
573003DeckChetopa59     May 19 2019 7:25AM
573003DepartureChetopa61     May 19 2019 7:25AM
573004AtmosphericChanute 6697610WMay 19 2019 7:25AM
573004ApproachChanute61     May 19 2019 7:25AM
573004DeckChanute55     May 19 2019 7:25AM